Flag for U.S.A. Weather past 2 weeks in Fort Lauderdale, Florida, U.S.A.

Now
82 °F

Passing clouds.


Feels Like: 89 °F
Forecast: 81 / 89 °F
Wind: 6 mph from East

Location: Fort Lauderdale / Hollywood International Airport

Current Time: Sep 15, 2014 at 5:30:01 AM

Latest Report: Sep 15, 2014 at 4:53 AM


Visibility: 10 mi

Pressure: 30.09 "Hg

Humidity: 79%

Dew point: 75 °F

Location of Fort LauderdaleLocation

Historic Weather in Fort Lauderdale — Graph

°F

Fort Lauderdale temperature yesterday

Maximum temperature yesterday: 88 °F (at 2:53 PM)
Minimum temperature yesterday: 75 °F (at 1:53 AM)
Average temperature yesterday: 82 °F

Past Weeks' High & Low Weather Summary

 TemperatureHumidityPressure
High91 °F (Aug 31, 1:53 PM)100% (Sep 13, 3:53 AM)30.13 "Hg (Sep 13, 3:53 AM)
Low74 °F (Sep 12, 6:53 AM)52% (Sep 4, 12:53 PM)29.92 "Hg (Sep 12, 4:53 AM)
Average84 °F72%30.02 "Hg
* Reported Aug 31 3:53 AM — Sep 15 3:53 AM, Fort Lauderdale, Weather by CustomWeather, © 2014

Note: Actual official high and low records may vary slightly from our data, if they occured in-between our weather recording intervals... More about our weather records

Advertising

Fort Lauderdale weather history for previous 24 hours

 ConditionsComfort  
Time TempWeatherWind HumidityBarometerVisibility
3:53 AM
Sep 15
82 °FPassing clouds.7 mph79%30.09 "Hg10 mi
2:53 AM83 °FPassing clouds.8 mph74%30.11 "Hg10 mi
1:53 AM83 °FPassing clouds.8 mph74%30.11 "Hg10 mi
12:53 AM83 °FPassing clouds.9 mph74%30.12 "Hg10 mi
11:53 PM
Sep 14
82 °FPassing clouds.3 mph79%30.13 "Hg10 mi
10:53 PM83 °FPartly cloudy.7 mph72%30.13 "Hg10 mi
9:53 PM84 °FPassing clouds.7 mph74%30.13 "Hg10 mi
8:53 PM84 °FPassing clouds.8 mph72%30.11 "Hg10 mi
7:53 PM84 °FPartly sunny.8 mph72%30.10 "Hg10 mi
6:53 PM85 °FBroken clouds.7 mph68%30.10 "Hg10 mi
5:53 PM85 °FPartly sunny.12 mph70%30.09 "Hg10 mi
4:53 PM86 °FPartly sunny.12 mph67%30.09 "Hg10 mi
3:53 PM88 °FBroken clouds.13 mph63%30.09 "Hg10 mi
2:53 PM88 °FPartly sunny.10 mph63%30.10 "Hg10 mi
1:53 PM87 °FScattered clouds.10 mph61%30.12 "Hg10 mi
12:53 PM87 °FScattered clouds.12 mph59%30.12 "Hg10 mi
11:53 AM87 °FPartly sunny.7 mph57%30.13 "Hg10 mi
10:53 AM86 °FScattered clouds.8 mph61%30.13 "Hg10 mi
9:53 AM83 °FScattered clouds.9 mph68%30.11 "Hg10 mi
8:53 AM79 °FPartly sunny.No wind77%30.09 "Hg10 mi
7:53 AM77 °FPassing clouds.3 mph82%30.08 "Hg10 mi
6:53 AM77 °FPassing clouds.3 mph85%30.06 "Hg10 mi
5:53 AM77 °FPassing clouds.5 mph85%30.04 "Hg10 mi
Weather by CustomWeather, © 2014

See weather overviewHow to use our weather pages